Weather History for KLKR - November, 2011

Change the Weather History Date:

Monday, November 14, 2011

  Actual Average (KUZA) Record (KUZA)
Temperature  
Mean Temperature 58 °F -  
Max Temperature 73 °F 61 °F 79 °F (1999)
Min Temperature 44 °F 39 °F 21 °F (2013)
Degree Days  
Heating Degree Days 6    
Growing Degree Days 8 (Base 50)    
Moisture  
Dew Point 54 °F    
Average Humidity 87    
Maximum Humidity 100    
Minimum Humidity 53    
Precipitation  
Precipitation 0.00 in - - ()
Sea Level Pressure  
Sea Level Pressure 30.11 in    
Wind  
Wind Speed 2 mph (SW)    
Max Wind Speed 10 mph    
Max Gust Speed 20 mph    
Visibility 8 miles    
Events Fog    
Averages and records for this station are not official NWS values.
T = Trace of Precipitation, MM = Missing Value Source: NWS Daily Summary

Daily Weather History Graph

Daily Weather History Graph

Search for Another Location

Airport or City:

Trip Planner

Search our weather history database for the weather conditions in past years. The results will help you decide how hot, cold, wet, or windy it might be!

Date:

Astronomy

Nov. 14, 2011 Rise Set
Actual Time 6:56 AM EST 5:19 PM EST
Civil Twilight 6:29 AM EST 5:45 PM EST
Nautical Twilight 5:58 AM EST 6:16 PM EST
Astronomical Twilight 5:29 AM EST 6:46 PM EST
Moon 8:27 PM EST (11/14) 10:10 AM EST (11/14)
Length of Visible Light 11h 16m
Length of Day
10h 23m
Waning Gibbous, 87% of the Moon is Illuminated
Nov 14
Waning Gibbous
Nov 18
Last Quarter
Nov 25
New
Dec 2
First Quarter
Dec 10
Full

Hourly Weather History & Observations

Time (EST) Temp. Dew Point Humidity Pressure Visibility Wind Dir Wind Speed Gust Speed Precip Events Conditions
12:15 AM 48.2 °F 48.2 °F 100% 30.15 in 10.0 mi Calm Calm - N/A   Clear
12:35 AM 48.2 °F 48.2 °F 100% 30.15 in 7.0 mi Calm Calm - N/A   Clear
12:55 AM 48.2 °F 48.2 °F 100% 30.16 in 9.0 mi Calm Calm - N/A   Clear
1:15 AM 48.2 °F 48.2 °F 100% 30.15 in 10.0 mi Calm Calm - N/A   Clear
1:35 AM 50.0 °F 50.0 °F 100% 30.15 in 10.0 mi Calm Calm - N/A   Clear
1:55 AM 53.6 °F 53.6 °F 100% 30.14 in 10.0 mi Calm Calm - N/A   Clear
2:15 AM 53.6 °F 51.8 °F 94% 30.14 in 10.0 mi SW 3.5 mph - N/A   Clear
2:35 AM 50.0 °F 50.0 °F 100% 30.15 in 10.0 mi Calm Calm - N/A   Clear
2:55 AM 50.0 °F 50.0 °F 100% 30.15 in 10.0 mi Calm Calm - N/A   Clear
3:15 AM 46.4 °F 46.4 °F 100% 30.15 in 7.0 mi Calm Calm - N/A   Clear
3:35 AM 46.4 °F 46.4 °F 100% 30.14 in 5.0 mi Calm Calm - N/A   Clear
3:55 AM 46.4 °F 46.4 °F 100% 30.15 in 4.0 mi Calm Calm - N/A   Clear
4:15 AM 46.4 °F 46.4 °F 100% 30.15 in 5.0 mi Calm Calm - N/A   Clear
4:35 AM 46.4 °F 46.4 °F 100% 30.15 in 5.0 mi Calm Calm - N/A   Scattered Clouds
4:55 AM 46.4 °F 46.4 °F 100% 30.16 in 5.0 mi Calm Calm - N/A   Scattered Clouds
5:15 AM 46.4 °F 46.4 °F 100% 30.16 in 5.0 mi Calm Calm - N/A   Scattered Clouds
5:35 AM 46.4 °F 46.4 °F 100% 30.16 in 5.0 mi Calm Calm - N/A   Partly Cloudy
5:55 AM 46.4 °F 46.4 °F 100% 30.16 in 5.0 mi Calm Calm - N/A   Clear
6:15 AM 46.4 °F 46.4 °F 100% 30.16 in 5.0 mi Calm Calm - N/A   Partly Cloudy
6:35 AM 46.4 °F 46.4 °F 100% 30.15 in 0.2 mi Calm Calm - N/A Fog Fog
7:15 AM 46.4 °F 46.4 °F 100% 30.16 in 0.2 mi Calm Calm - N/A Fog Fog
7:35 AM 44.6 °F 44.6 °F 100% 30.17 in 2.5 mi Calm Calm - N/A   Scattered Clouds
7:55 AM 46.4 °F 46.4 °F 100% 30.17 in 0.2 mi Calm Calm - N/A Fog Fog
8:15 AM 48.2 °F 48.2 °F 100% 30.17 in 4.0 mi Calm Calm - N/A   Clear
8:35 AM 53.6 °F 53.6 °F 100% 30.18 in 8.0 mi Calm Calm - N/A   Clear
8:55 AM 57.2 °F 57.2 °F 100% 30.18 in 10.0 mi SW 3.5 mph - N/A   Clear
9:15 AM 59.0 °F 57.2 °F 94% 30.18 in 10.0 mi SW 6.9 mph - N/A   Clear
9:35 AM 62.6 °F 57.2 °F 82% 30.18 in 10.0 mi SW 6.9 mph - N/A   Clear
9:55 AM 62.6 °F 57.2 °F 82% 30.18 in 10.0 mi SW 3.5 mph - N/A   Clear
10:15 AM 64.4 °F 57.2 °F 77% 30.18 in 10.0 mi SW 4.6 mph - N/A   Clear
10:35 AM 66.2 °F 57.2 °F 73% 30.17 in 10.0 mi SW 6.9 mph - N/A   Clear
10:55 AM 68.0 °F 57.2 °F 68% 30.16 in 10.0 mi SW 9.2 mph - N/A   Clear
11:15 AM 68.0 °F 57.2 °F 68% 30.16 in 10.0 mi SW 8.1 mph - N/A   Clear
11:35 AM 71.6 °F 57.2 °F 60% 30.15 in 10.0 mi SW 8.1 mph - N/A   Scattered Clouds
11:55 AM 71.6 °F 57.2 °F 60% 30.13 in 10.0 mi SW 6.9 mph - N/A   Scattered Clouds
12:15 PM 71.6 °F 57.2 °F 60% 30.12 in 10.0 mi WSW 9.2 mph - N/A   Clear
12:35 PM 71.6 °F 57.2 °F 60% 30.11 in 10.0 mi SW 9.2 mph 19.6 mph N/A   Scattered Clouds
12:55 PM 71.6 °F 57.2 °F 60% 30.10 in 10.0 mi SSW 6.9 mph - N/A   Mostly Cloudy
1:15 PM 73.4 °F 57.2 °F 57% 30.09 in 10.0 mi SW 5.8 mph - N/A   Partly Cloudy
1:55 PM 73.4 °F 57.2 °F 57% 30.07 in 10.0 mi SW 6.9 mph - N/A   Mostly Cloudy
2:15 PM 73.4 °F 57.2 °F 57% 30.06 in 10.0 mi WSW 10.4 mph - N/A   Scattered Clouds
2:35 PM 73.4 °F 57.2 °F 57% 30.06 in 10.0 mi SW 6.9 mph - N/A   Partly Cloudy
2:55 PM 73.4 °F 55.4 °F 53% 30.06 in 10.0 mi SW 8.1 mph - N/A   Scattered Clouds
3:35 PM 73.4 °F 57.2 °F 57% 30.05 in 10.0 mi SW 8.1 mph - N/A   Partly Cloudy
3:55 PM 71.6 °F 57.2 °F 60% 30.05 in 10.0 mi SW 5.8 mph - N/A   Partly Cloudy
4:15 PM 71.6 °F 57.2 °F 60% 30.04 in 10.0 mi SW 5.8 mph - N/A   Scattered Clouds
4:35 PM 71.6 °F 57.2 °F 60% 30.04 in 10.0 mi Calm Calm - N/A   Scattered Clouds
4:55 PM 69.8 °F 59.0 °F 68% 30.04 in 10.0 mi Calm Calm - N/A   Partly Cloudy
5:15 PM 66.2 °F 60.8 °F 83% 30.04 in 10.0 mi Calm Calm - N/A   Partly Cloudy
5:35 PM 62.6 °F 60.8 °F 94% 30.04 in 10.0 mi Calm Calm - N/A   Clear
5:55 PM 60.8 °F 60.8 °F 100% 30.04 in 10.0 mi Calm Calm - N/A   Clear
6:15 PM 59.0 °F 59.0 °F 100% 30.04 in 10.0 mi Calm Calm - N/A   Clear
6:35 PM 59.0 °F 59.0 °F 100% 30.04 in 10.0 mi Calm Calm - N/A   Clear
6:55 PM 59.0 °F 59.0 °F 100% 30.04 in 10.0 mi Calm Calm - N/A   Clear
7:15 PM 57.2 °F 57.2 °F 100% 30.05 in 10.0 mi Calm Calm - N/A   Partly Cloudy
7:35 PM 57.2 °F 57.2 °F 100% 30.05 in 10.0 mi Calm Calm - N/A   Scattered Clouds
7:55 PM 57.2 °F 57.2 °F 100% 30.04 in 10.0 mi Calm Calm - N/A   Partly Cloudy
8:15 PM 57.2 °F 57.2 °F 100% 30.04 in 10.0 mi Calm Calm - N/A   Clear
8:35 PM 57.2 °F 57.2 °F 100% 30.05 in 10.0 mi Calm Calm - N/A   Clear
8:55 PM 55.4 °F 55.4 °F 100% 30.05 in 8.0 mi Calm Calm - N/A   Clear
9:15 PM 55.4 °F 55.4 °F 100% 30.04 in 6.0 mi Calm Calm - N/A   Clear
9:35 PM 57.2 °F 57.2 °F 100% 30.04 in 10.0 mi Calm Calm - N/A   Clear
9:55 PM 59.0 °F 57.2 °F 94% 30.04 in 10.0 mi Calm Calm - N/A   Clear
10:15 PM 62.6 °F 57.2 °F 82% 30.04 in 10.0 mi Calm Calm - N/A   Scattered Clouds
10:35 PM 62.6 °F 57.2 °F 82% 30.04 in 10.0 mi SSE 3.5 mph - N/A   Scattered Clouds
10:55 PM 59.0 °F 57.2 °F 94% 30.03 in 10.0 mi Calm Calm - N/A   Clear
11:15 PM 60.8 °F 57.2 °F 88% 30.03 in 10.0 mi SSE 4.6 mph - N/A   Clear
11:35 PM 60.8 °F 57.2 °F 88% 30.03 in 10.0 mi Calm Calm - N/A   Clear
11:55 PM 60.8 °F 57.2 °F 88% 30.03 in 10.0 mi Calm Calm - N/A   Clear